Welcome to the New NWS' Forecast!
Most changes are behind the scenes, but click here for differences you might notice.

Regional Weather Roundup (RWR)

Issued by Philadelphia/Mt Holly (PHI)

                            
318 
ASUS41 KPHI 201213
RWRPHI

REGIONAL WEATHER ROUNDUP
NATIONAL WEATHER SERVICE MOUNT HOLLY NJ
800 AM EDT MON AUG 20 2018

NOTE:  "FAIR" INDICATES FEW OR NO CLOUDS BELOW 12,000 FEET WITH NO
SIGNIFICANT WEATHER AND/OR OBSTRUCTIONS TO VISIBILITY.

 * = STATION DOES NOT REPORT PRECIPITATION (E.G. RAIN, SNOW, ETC.) 
        OR FOG.

NJZ015>026-201300-
SOUTHERN NEW JERSEY
  
CITY           SKY/WX    TMP DP  RH WIND       PRES   REMARKS
POMONA         PTSUNNY   71  66  84 NE8       30.10R                  
6HR MIN TEMP:  69; 6HR MAX TEMP:  73;                                

WILDWOOD*      CLOUDY    72  68  87 NE9       30.10R                  
MILLVILLE      CLOUDY    69  64  84 NE7       30.10R                  
WRIGHTSTOWN    SUNNY     68  63  85 N6        30.09S                  
MOUNT HOLLY    CLOUDY    67  65  93 NE5       30.10F                  
TRENTON        CLOUDY    68  62  81 NE6       30.12R                  
6HR MIN TEMP:  67; 6HR MAX TEMP:  69;                                


$$
NJZ001>014-201300-
NORTHERN NEW JERSEY
  
CITY           SKY/WX    TMP DP  RH WIND       PRES   REMARKS
SUSSEX         PTSUNNY   66  61  84 N6        30.16R                  
ANDOVER*         N/A     64  62  93 VRB5      30.15S                  
MORRISTOWN     CLOUDY    66  63  88 NE8       30.14R                  
NEWARK         FAIR      69  61  75 N14       30.12S                  
TETERBORO      CLOUDY    69  62  78 NE5       30.12S                  
CALDWELL       CLOUDY    67  62  84 NE6       30.14S                  
SOMERVILLE     PTSUNNY   69  61  75 CALM      30.11S                  
ALLAIRE*       CLOUDY    68  64  87 NE3       30.14R                  
TOMS RIVER*    CLOUDY    68  64  87 NE7       30.12R                  

$$
PAZ043-044-047-054-055-060>062-066>071-201300-
EASTERN PENNSYLVANIA
  
CITY           SKY/WX    TMP DP  RH WIND       PRES   REMARKS
PHILADELPHIA   PTSUNNY   68  62  81 NE10      30.11R                  
6HR MIN TEMP:  66; 6HR MAX TEMP:  68; 6HR PCP: TRACE;                

NORTH PHILA    CLOUDY    70  62  76 NE10      30.13R                  
BLUE BELL*     FAIR      64  64 100 CALM      30.13R                  
DOYLESTOWN     CLOUDY    67  62  84 NE6       30.13R                  
QUAKERTOWN*    MOSUNNY   66  64  94 CALM      30.13S                  
PERKASIE*      CLOUDY    64  64 100 E5        30.14S                  
POTTSTOWN      PTSUNNY   66  64  93 NE5       30.14R                  
LANCASTER      CLOUDY    67  65  93 E7        30.11F                  
COATESVILLE    CLOUDY    64  64 100 CALM      30.13S                  
READING        PTSUNNY   67  64  90 NE3       30.11S                  
6HR MIN TEMP:  65; 6HR MAX TEMP:  67; 6HR PCP:  0.03;                

ALLENTOWN      CLOUDY    68  62  81 E6        30.13S                  
6HR MIN TEMP:  67; 6HR MAX TEMP:  68; 6HR PCP:  0.01;                

MOUNT POCONO   FAIR      59  57  93 E8        30.16S                  
6HR MIN TEMP:  58; 6HR MAX TEMP:  61;                                

HAZLETON       FAIR      63  59  88 MISG      30.18S                  
LEHIGHTON      CLOUDY    64  64 100 CALM      30.14S                  
WILKES BARRE   FAIR      64  58  80 NE6       30.16R                  

$$
DEZALL-MDZ008-012-015-019-020-201300-
DELAWARE AND EASTERN MARYLAND
  
CITY           SKY/WX    TMP DP  RH WIND       PRES   REMARKS
WILMINGTON     CLOUDY    69  62  78 NE7       30.11S                  
6HR MIN TEMP:  68; 6HR MAX TEMP:  69;                                

DOVER          CLOUDY    70  66  87 NE12      30.08R                  
GEORGETOWN     CLOUDY    73  70  90 NE12      30.08R                  
6HR MIN TEMP:  73; 6HR MAX TEMP:  74;                                

EASTON         CLOUDY    72  66  83 NE8       30.10R                  
ABERDEEN       CLOUDY    69  64  86 E9        30.10R                  
OCEAN CITY     CLOUDY    75  71  87 NE8G17    30.06S                  
WALLOPS ISLAND LGT RAIN  75  74  96 N6        30.05S                  
CAMBRIDGE      PTSUNNY   72  68  88 NE6       30.06S                  
SALISBURY      FAIR      73  71  93 NE6       30.05S                  

$$
PAZ001-021-NYZ056-072-MDZ011-DCZ001-201300-
OTHER NEARBY LOCATIONS
  
CITY           SKY/WX    TMP DP  RH WIND       PRES   REMARKS
HARRISBURG     CLOUDY    67  63  87 CALM      30.10F                  
STATE COLLEGE  DRIZZLE   64  61  88 E6        30.12R                  
WILLIAMSPORT   CLOUDY    68  62  81 E9        30.12R                  
BINGHAMTON     FAIR      61  57  87 SE6       30.17R                  
NEW YORK CITY  CLOUDY    68  61  78 N5        30.16R                  
BALTIMORE      CLOUDY    69  63  81 NE8       30.09R                  
WASHINGTON DC  LGT RAIN  72  65  78 NE13      30.08R                  

$$